Location: Newark
(50.4348°N, 30.5552°E)
Time: 13:37:52
(UTC+00:00)

Transit 2A Rocket - Pass Details

Date: 02 February 2020
Orbit: 591 x 912 km, 66.7° (Epoch: 24 February)

Event Time Altitude Azimuth Distance (km) Brightness Sun altitude
Exits shadow 02:04:41 18° 34° (NE) 1,507 6.9 -33.0°
Drops below altitude 10° 02:05:54 10° 36° (NE) 1,988 7.7 -32.9°
Sets 02:08:14 0° 37° (NE) 2,932 8.7 -32.5°
